FW7746 Weather Reports


Display with metric or nautical units.
time (UTC)temp
F
wind
direction
speed
MPH
gust
MPH
rain 1hr
in
rain 24hr
in
rain mn
in
humidity
%
barometer
mb
20260904095603 46 234 0.0 0.0 0.00 0.00 0.00 77 1010.5
20260904095103 46 234 1.0 5.0 0.00 0.00 0.00 77 1010.4
20260904094603 46 207 0.0 1.0 0.00 0.00 0.00 77 1010.5
20260904094104 46 189 0.0 2.0 0.00 0.00 0.00 77 1010.5
20260904093603 46 194 0.0 3.0 0.00 0.00 0.00 78 1010.5
20260904093103 46 191 0.0 0.0 0.00 0.00 0.00 78 1010.5
20260904092603 46 190 0.0 0.0 0.00 0.00 0.00 78 1010.6
20260904092104 46 192 0.0 2.0 0.00 0.00 0.00 77 1010.5
20260904091603 46 186 0.0 2.0 0.00 0.00 0.00 76 1010.5
20260904090103 46 223 0.0 1.0 0.00 0.00 0.00 76 1010.5
20260904085604 46 216 1.0 3.0 0.00 0.00 0.00 76 1010.5
20260904085103 46 158 0.0 3.0 0.00 0.00 0.00 76 1010.5
20260904084603 47 202 0.0 3.0 0.00 0.00 0.00 76 1010.6
20260904084104 47 196 0.0 0.0 0.00 0.00 0.00 76 1010.5
20260904083603 47 196 0.0 3.0 0.00 0.00 0.00 75 1010.5
20260904083103 47 200 0.0 0.0 0.00 0.00 0.00 76 1010.4
20260904082103 47 199 0.0 1.0 0.00 0.00 0.00 76 1010.4
20260904081604 47 196 0.0 2.0 0.00 0.00 0.00 76 1010.3
20260904081103 47 162 0.0 0.0 0.00 0.00 0.00 76 1010.3
20260904080604 47 161 0.0 0.0 0.00 0.00 0.00 76 1010.3
20260904080103 47 161 0.0 0.0 0.00 0.00 0.00 76 1010.3
20260904075604 47 161 0.0 0.0 0.00 0.00 0.00 76 1010.3
20260904074604 47 161 0.0 0.0 0.00 0.00 0.00 76 1010.2
20260904074103 47 162 0.0 0.0 0.00 0.00 0.00 76 1010.3
20260904073604 47 162 0.0 0.0 0.00 0.00 0.00 76 1010.2
20260904072605 47 161 0.0 0.0 0.00 0.00 0.00 76 1010.2
20260904072103 47 161 0.0 0.0 0.00 0.00 0.00 75 1010.1
20260904071604 47 161 0.0 0.0 0.00 0.00 0.00 75 1010.1
20260904071103 48 161 0.0 0.0 0.00 0.00 0.00 74 1010.2
20260904065604 48 161 0.0 0.0 0.00 0.00 0.00 73 1010.3
20260904065103 48 161 0.0 0.0 0.00 0.00 0.00 73 1010.2
20260904064604 49 161 0.0 0.0 0.00 0.00 0.00 72 1010.2
20260904064103 49 161 0.0 0.0 0.00 0.00 0.00 72 1010.1
20260904063603 49 161 0.0 2.0 0.00 0.00 0.00 72 1010.1
20260904063104 49 167 0.0 0.0 0.00 0.00 0.00 72 1010.1
20260904062603 49 167 0.0 0.0 0.00 0.00 0.00 72 1010.2
20260904062104 49 167 0.0 0.0 0.00 0.00 0.00 72 1010.2
20260904061103 49 167 0.0 0.0 0.00 0.00 0.00 71 1010.2
20260904060603 49 167 0.0 1.0 0.00 0.00 0.00 71 1010.3
20260904060104 49 174 0.0 0.0 0.00 0.00 0.00 71 1010.2
20260904055104 49 174 0.0 0.0 0.00 0.00 0.00 70 1010.1
20260904054603 49 174 0.0 1.0 0.00 0.00 0.00 70 1010.1
20260904054103 50 174 0.0 0.0 0.00 0.00 0.00 69 1010.2
20260904053604 50 174 0.0 0.0 0.00 0.00 0.00 69 1010.2
20260904053104 50 174 0.0 0.0 0.00 0.00 0.00 68 1010.2
20260904052603 50 174 0.0 0.0 0.00 0.00 0.00 68 1010.2
20260904052104 50 175 0.0 0.0 0.00 0.00 0.00 67 1010.2
20260904051604 50 175 0.0 0.0 0.00 0.00 0.00 67 1010.2
20260904051103 50 175 0.0 0.0 0.00 0.00 0.00 67 1010.4
20260904050103 50 173 0.0 0.0 0.00 0.00 0.00 66 1010.4
20260904045604 50 173 0.0 0.0 0.00 0.00 0.00 66 1010.3
20260904045103 50 173 0.0 0.0 0.00 0.00 0.00 65 1010.2
20260904044603 50 173 0.0 0.0 0.00 0.00 0.00 65 1010.3
20260904044104 51 173 0.0 0.0 0.00 0.00 0.00 64 1010.2
20260904043604 51 173 0.0 0.0 0.00 0.00 0.00 64 1010.2
20260904043103 51 173 0.0 0.0 0.00 0.00 0.00 64 1010.1
20260904042604 51 173 0.0 0.0 0.00 0.00 0.00 64 1010.0
20260904042103 50 173 0.0 0.0 0.00 0.00 0.00 65 1009.9
20260904041103 51 173 0.0 0.0 0.00 0.00 0.00 67 1009.9
20260904040603 51 173 0.0 0.0 0.00 0.00 0.00 66 1009.9
20260904035604 51 173 0.0 0.0 0.00 0.00 0.00 63 1009.9
20260904035103 52 173 0.0 0.0 0.00 0.00 0.00 63 1009.8
20260904034603 52 173 0.0 0.0 0.00 0.00 0.00 62 1009.7
20260904034104 52 173 0.0 0.0 0.00 0.00 0.00 61 1009.6
20260904033103 53 173 0.0 0.0 0.00 0.00 0.00 59 1009.6
20260904032103 53 173 0.0 0.0 0.00 0.00 0.00 59 1009.6
20260904031603 53 173 0.0 0.0 0.00 0.00 0.00 58 1009.6
20260904031104 53 173 0.0 0.0 0.00 0.01 0.00 57 1009.6
20260904030604 53 173 0.0 0.0 0.00 0.01 0.00 56 1009.4
20260904030104 54 173 0.0 0.0 0.00 0.01 0.00 55 1009.4
20260904025603 54 173 0.0 0.0 0.00 0.01 0.00 55 1009.3
20260904025103 54 173 0.0 0.0 0.00 0.01 0.00 55 1009.3
20260904024604 54 173 0.0 0.0 0.00 0.01 0.00 54 1009.1
20260904024103 54 173 0.0 0.0 0.00 0.01 0.00 54 1009.0
20260904023103 55 173 0.0 0.0 0.00 0.01 0.00 53 1009.0
20260904022604 55 173 0.0 0.0 0.00 0.01 0.00 53 1009.0
20260904022103 55 172 0.0 0.0 0.00 0.01 0.00 52 1009.0
20260904021603 55 173 0.0 0.0 0.00 0.01 0.00 52 1009.0
20260904021104 55 172 0.0 0.0 0.00 0.01 0.00 51 1009.0
20260904020603 55 172 0.0 0.0 0.00 0.01 0.00 51 1009.0
20260904015603 56 172 0.0 0.0 0.00 0.01 0.00 51 1009.1
20260904015103 56 172 0.0 0.0 0.00 0.01 0.00 50 1009.1
20260904014104 56 171 0.0 2.0 0.00 0.01 0.00 49 1009.1
20260904013604 56 180 0.0 0.0 0.00 0.01 0.00 50 1009.0
20260904013103 57 181 0.0 0.0 0.00 0.02 0.00 50 1009.0
20260904012603 57 181 0.0 0.0 0.00 0.02 0.00 49 1009.0
20260904012103 57 180 0.0 2.0 0.00 0.03 0.00 48 1009.0
20260904011603 57 207 0.0 0.0 0.00 0.04 0.00 49 1008.9
20260904011104 57 207 0.0 0.0 0.00 0.06 0.00 49 1008.8
20260904010604 57 207 0.0 1.0 0.00 0.07 0.00 48 1008.7
20260904010104 57 209 0.0 3.0 0.00 0.09 0.00 48 1008.8
20260904005603 57 195 0.0 1.0 0.00 0.09 0.00 47 1008.6
20260904005104 57 190 0.0 0.0 0.00 0.10 0.00 47 1008.8
20260904004603 57 182 0.0 1.0 0.00 0.11 0.00 47 1008.8
20260904003604 57 189 0.0 0.0 0.00 0.11 0.00 46 1008.9
20260904003103 57 215 0.0 3.0 0.00 0.11 0.00 47 1008.9
20260904002604 58 188 0.0 1.0 0.00 0.11 0.00 46 1008.9
20260904001603 57 212 0.0 0.0 0.00 0.11 0.00 46 1008.8
20260904001104 58 211 1.0 5.0 0.00 0.11 0.00 43 1008.9
20260904000603 59 218 1.0 7.0 0.00 0.11 0.00 43 1008.8
20260904000104 59 155 0.0 1.0 0.00 0.11 0.00 44 1008.8
20260903235604 59 163 0.0 2.0 0.00 0.11 0.00 44 1008.8
20260903235104 59 113 0.0 0.0 0.00 0.11 0.00 45 1008.8
20260903234103 59 151 0.0 2.0 0.00 0.11 0.00 45 1008.8
20260903233603 59 52 1.0 6.0 0.00 0.11 0.00 47 1008.9
20260903233103 58 222 1.0 5.0 0.00 0.11 0.00 48 1008.9
20260903232603 58 121 0.0 2.0 0.00 0.11 0.00 47 1009.0
20260903231103 58 147 0.0 2.0 0.00 0.11 0.00 47 1009.1
20260903230604 59 144 0.0 1.0 0.00 0.11 0.00 46 1009.1
20260903230103 60 134 0.0 2.0 0.00 0.11 0.00 45 1009.2
20260903225603 60 91 1.0 6.0 0.00 0.11 0.00 47 1009.1
20260903224104 58 232 0.0 2.0 0.00 0.11 0.00 49 1009.4
20260903223603 58 197 1.0 5.0 0.00 0.11 0.00 50 1009.5
20260903223104 57 200 0.0 2.0 0.00 0.11 0.00 52 1009.6
20260903222603 57 171 0.0 0.0 0.00 0.11 0.00 53 1009.6
20260903222104 57 198 0.0 1.0 0.00 0.11 0.00 53 1009.6
20260903221603 56 217 0.0 2.0 0.00 0.11 0.00 54 1009.7
20260903221104 56 196 0.0 0.0 0.00 0.11 0.00 53 1009.8
20260903220604 55 225 0.0 3.0 0.00 0.11 0.00 55 1009.8
20260903215603 56 203 0.0 2.0 0.00 0.11 0.00 54 1009.9
20260903215104 56 158 0.0 1.0 0.00 0.11 0.00 54 1010.0
20260903214104 56 209 0.0 0.0 0.00 0.11 0.00 53 1010.2
20260903213103 56 185 0.0 2.0 0.00 0.11 0.00 54 1010.4
20260903212603 56 153 0.0 1.0 0.00 0.11 0.00 54 1010.4
20260903212104 56 148 0.0 2.0 0.00 0.11 0.00 54 1010.4
20260903211604 56 187 0.0 1.0 0.00 0.11 0.00 54 1010.4
20260903211103 56 179 0.0 3.0 0.00 0.11 0.00 54 1010.4
20260903210604 56 190 0.0 2.0 0.00 0.11 0.00 55 1010.3
20260903210104 56 172 0.0 1.0 0.00 0.11 0.00 54 1010.4
20260903205603 56 222 1.0 3.0 0.00 0.11 0.00 53 1010.3
20260903205103 56 130 1.0 5.0 0.00 0.11 0.00 54 1010.3
20260903204605 56 209 0.0 0.0 0.00 0.12 0.00 55 1010.3
20260903204103 55 211 0.0 3.0 0.00 0.12 0.00 56 1010.3
20260903203104 55 237 0.0 7.0 0.00 0.12 0.00 56 1010.3
20260903202604 55 204 0.0 3.0 0.00 0.12 0.00 55 1010.4
20260903202103 55 206 0.0 7.0 0.00 0.12 0.00 56 1010.4
20260903201604 55 233 1.0 5.0 0.00 0.12 0.00 56 1010.5
20260903201104 55 218 0.0 2.0 0.00 0.12 0.00 60 1010.6
20260903200604 55 215 0.0 3.0 0.00 0.12 0.00 57 1010.5
20260903200104 55 217 0.0 3.0 0.00 0.13 0.00 59 1010.7
20260903195603 55 235 1.0 3.0 0.00 0.13 0.00 59 1010.6
20260903194603 55 151 0.0 3.0 0.00 0.14 0.00 60 1010.6
20260903194104 55 335 0.0 2.0 0.00 0.14 0.00 61 1010.6
20260903193604 54 240 0.0 2.0 0.00 0.14 0.00 62 1010.6
20260903192604 54 189 1.0 8.0 0.00 0.14 0.00 62 1010.8
20260903192104 54 254 0.0 1.0 0.00 0.15 0.00 63 1010.8
20260903191603 54 59 0.0 2.0 0.00 0.15 0.00 63 1010.9
20260903190603 54 158 0.0 3.0 0.00 0.16 0.00 62 1010.9
20260903190104 53 139 0.0 3.0 0.00 0.17 0.00 64 1011.0
20260903185603 54 138 1.0 3.0 0.00 0.17 0.00 66 1011.0
20260903185104 53 176 0.0 0.0 0.00 0.17 0.00 65 1011.0
20260903184603 53 174 0.0 0.0 0.00 0.18 0.00 68 1011.1
20260903184103 53 177 0.0 3.0 0.00 0.18 0.00 67 1011.1
20260903183103 52 200 0.0 3.0 0.00 0.18 0.00 68 1011.2
20260903182604 52 124 0.0 2.0 0.00 0.18 0.00 70 1011.1
20260903182104 52 160 0.0 0.0 0.00 0.18 0.00 71 1011.2
20260903181103 51 148 0.0 1.0 0.00 0.18 0.00 71 1011.1
20260903180604 51 244 0.0 3.0 0.00 0.18 0.00 73 1011.1
20260903180104 51 70 0.0 1.0 0.00 0.18 0.00 74 1011.1
20260903175604 51 216 0.0 2.0 0.00 0.18 0.00 74 1011.1
20260903175103 50 217 0.0 1.0 0.00 0.18 0.00 74 1011.0
20260903174604 51 194 0.0 0.0 0.00 0.18 0.00 76 1011.1
20260903174104 50 194 0.0 2.0 0.00 0.18 0.00 76 1011.0
20260903173604 50 231 0.0 2.0 0.00 0.18 0.00 77 1011.0
20260903172604 50 159 0.0 1.0 0.00 0.18 0.00 77 1011.1
20260903171104 49 183 0.0 0.0 0.00 0.18 0.00 80 1011.0
20260903165604 48 165 0.0 0.0 0.00 0.18 0.00 81 1011.0
20260903165104 48 152 0.0 1.0 0.00 0.18 0.00 80 1011.1
20260903164603 48 153 0.0 0.0 0.00 0.18 0.00 81 1011.2
20260903163603 48 160 0.0 0.0 0.00 0.18 0.00 82 1011.2
20260903163104 48 160 0.0 0.0 0.00 0.18 0.00 81 1011.2
20260903162104 47 160 0.0 0.0 0.00 0.18 0.00 81 1011.0
20260903161605 47 160 0.0 1.0 0.00 0.18 0.00 81 1011.0
20260903161104 47 150 0.0 0.0 0.00 0.18 0.00 81 1011.1
20260903160604 47 150 0.0 0.0 0.00 0.18 0.00 82 1011.3
20260903160104 47 150 0.0 2.0 0.00 0.18 0.00 82 1011.4
20260903155103 47 189 0.0 0.0 0.00 0.18 0.00 82 1011.4
20260903154603 47 189 0.0 0.0 0.00 0.18 0.00 83 1011.4
20260903154104 47 189 0.0 0.0 0.00 0.18 0.00 82 1011.4
20260903153603 47 189 0.0 0.0 0.00 0.18 0.00 83 1011.4
20260903153104 46 189 0.0 0.0 0.00 0.18 0.00 83 1011.4
20260903152604 46 189 0.0 0.0 0.00 0.18 0.00 83 1011.4
20260903151604 46 189 0.0 0.0 0.00 0.18 0.00 84 1011.4
20260903151103 46 189 0.0 0.0 0.00 0.18 0.00 84 1011.4
20260903150603 45 189 0.0 0.0 0.00 0.18 0.00 84 1011.4
20260903150104 45 189 0.0 0.0 0.00 0.18 0.00 84 1011.2
20260903145604 45 189 0.0 1.0 0.00 0.18 0.00 85 1011.3
20260903145103 45 189 0.0 0.0 0.00 0.18 0.00 85 1011.1
20260903144603 45 189 0.0 0.0 0.00 0.18 0.00 85 1011.1
20260903144103 45 189 0.0 0.0 0.00 0.18 0.00 85 1011.2
20260903143603 44 189 0.0 0.0 0.00 0.18 0.00 85 1011.1
20260903142103 44 189 0.0 0.0 0.00 0.18 0.00 85 1011.2
20260903141604 44 189 0.0 0.0 0.00 0.18 0.00 85 1011.1
20260903141103 44 189 0.0 0.0 0.00 0.18 0.00 85 1011.1
20260903140604 44 189 0.0 0.0 0.00 0.18 0.00 85 1011.2
20260903140104 44 189 0.0 0.0 0.00 0.18 0.00 85 1011.2
20260903135604 44 189 0.0 0.0 0.00 0.18 0.00 85 1011.3
20260903135103 44 189 0.0 0.0 0.00 0.18 0.00 84 1011.3
20260903134604 44 189 0.0 0.0 0.00 0.18 0.00 84 1011.3
20260903134104 44 189 0.0 0.0 0.00 0.18 0.00 83 1011.3
20260903133603 45 189 0.0 0.0 0.00 0.18 0.00 83 1011.3
20260903132104 44 182 0.0 0.0 0.00 0.18 0.00 84 1011.1
20260903131604 44 182 0.0 0.0 0.00 0.18 0.00 85 1011.1
20260903131104 44 182 0.0 0.0 0.00 0.18 0.00 85 1011.0
20260903130604 44 182 0.0 0.0 0.00 0.18 0.00 86 1011.0
20260903125104 43 182 0.0 0.0 0.00 0.18 0.00 88 1010.9
20260903124103 43 182 0.0 0.0 0.00 0.18 0.00 89 1010.8
20260903123604 43 182 0.0 0.0 0.00 0.18 0.00 89 1010.7
20260903123104 43 182 0.0 0.0 0.00 0.18 0.00 89 1010.7
20260903122603 43 182 0.0 0.0 0.00 0.18 0.00 90 1010.7
20260903122103 43 182 0.0 0.0 0.00 0.18 0.00 91 1010.8
20260903121104 42 182 0.0 0.0 0.00 0.18 0.00 91 1010.7
20260903120604 42 182 0.0 0.0 0.00 0.18 0.00 91 1010.7
20260903120104 42 182 0.0 0.0 0.00 0.18 0.00 91 1010.8
20260903115606 42 182 0.0 0.0 0.00 0.18 0.00 90 1010.7
20260903114604 43 182 0.0 0.0 0.00 0.18 0.00 89 1010.7
20260903114104 43 182 0.0 0.0 0.00 0.18 0.00 88 1010.5
20260903113104 44 182 0.0 0.0 0.00 0.18 0.00 87 1010.7
20260903112604 44 182 0.0 0.0 0.00 0.18 0.00 87 1010.6
20260903112104 44 182 0.0 0.0 0.00 0.18 0.00 87 1010.5
20260903111604 44 182 0.0 0.0 0.00 0.18 0.00 88 1010.5
20260903111104 44 182 0.0 0.0 0.00 0.18 0.00 88 1010.5
20260903110604 45 182 0.0 0.0 0.00 0.18 0.00 88 1010.5
20260903110104 45 182 0.0 0.0 0.00 0.18 0.00 87 1010.5
20260903105604 45 182 0.0 0.0 0.00 0.18 0.00 87 1010.5
20260903105104 45 182 0.0 0.0 0.00 0.18 0.00 86 1010.6
20260903104104 45 182 0.0 0.0 0.00 0.18 0.00 85 1010.6
20260903103604 45 182 0.0 0.0 0.00 0.18 0.00 84 1010.6
20260903103104 45 182 0.0 0.0 0.00 0.18 0.00 85 1010.6
20260903102603 45 182 0.0 0.0 0.00 0.18 0.00 84 1010.6
20260903102104 45 182 0.0 0.0 0.00 0.18 0.00 85 1010.7
20260903101604 45 182 0.0 0.0 0.00 0.18 0.00 85 1010.7
20260903101104 45 182 0.0 0.0 0.00 0.18 0.00 84 1010.7
20260903100604 45 182 0.0 0.0 0.00 0.18 0.00 85 1010.6